COSMOS 894 DEB, 45506

Orbit data source: Space-Track

COSMOS 894 DEB, 45506 is space debris in LEO originally from a launch on Mon, 21 Feb 1977 UTC launched from the Plesetsk Missile And Space Complex (PKMTR). Debris objects in space refer to the collection of defunct objects orbiting the Earth. Examples of debris include non-operational satellites, rocket bodies, and fragments generated from explosions, collisions, or faulty payload assembly.

Loading next visibility...
COSMOS 894 DEB details
Identifier
45506, 1977-013C
Orbit
LEO
Last TLE update1 day ago
Origin
Flag of CISVMF RF (CIS)
ManufacturerUnknown
MissionSpacecraft
Bus & MotorUnknown
MassUnknown
Launch date (UTC)
1977-02-21 (48 years ago)
Launch vehicleUnknown
Launch site
Plesetsk Missile And Space Complex (PKMTR)
Object type
Payload
Rocket body
Debris
Shape & HBRUnknown
Radar Cross SectionSmall (<0.1 m²)

Expand to show TLE details & history

TLE from 1 day ago
0 COSMOS 894 DEB
1 45506U 77013C   24336.21431747  .00002089  00000-0  20488-2 0  9998
2 45506  82.9411 144.1873 0028371 303.0927  56.7508 13.78376272535415
Epoch: 2024-12-01T05:08Z
Definitive object data (Epoch: 2024-12-01T05:08:37.029Z)
Latitude0.00002°
Longitude-3.52273°
Altitude961.165 km
Speed7.377 km/s
True Right ascension09h 36m 44s
True Declination0° 00' 00"
Sunlit
Object was in daylight at TLE epoch
Visualization TLE readout
Latitude-21.49286°
Longitude-7.21917°
Altitude961.474 km
Speed7.378 km/s
Apparent Right ascension11h 20m 41s
Apparent Declination-70° 28' 14"
Sunlit
Object is in daylight
Visualization observer readout
Local Sidereal Time08:25:58
Azimuth165.268° S
Elevation-24.791°
Doppler factor1
Orbital elements
Apogee altitude987.634 km
Perigee altitude945.957 km
Semi-major axis7,344.933 km
Eccentricity0.0028371
Inclination82.9411°
RAAN144.1873°
Arg. of periapsis303.0927°
True anomaly57.02321°
Mean anomaly56.7508°
Eccentric anomaly56.88695°
Mean motion3.44795 °/min
BSTAR0.0020488
Orbital period104.41 mins
Loading maneuver chart data...
Loading historical data...
Loading historical data...
Loading historical data...
Loading historical data...
Loading historical data...
Loading historical data...
Loading historical data...
Other satellites on launch #13 in the year 1977 (1977-02-21 UTC)

COSMOS 894 DEB Visibility forecast

Observer location: undefined°, undefined

Span
Click to sort rows by Start time (UTC) header in descending order
Start Az.
Max El. time (UTC)
Max El. Az.
Max El.
End time (UTC)
End Az.
8 mins2024-12-02 10:53:22.955Z128.356° SE2024-12-02 10:57:22.955Z82.541° E21.446°2024-12-02 11:01:22.955Z38.534° NE
10 mins2024-12-02 12:37:22.955Z211.002° SW2024-12-02 12:42:22.955Z291.15° WNW37.305°2024-12-02 12:47:22.955Z354.209° N
7 mins2024-12-02 21:49:22.955Z36.676° NE2024-12-02 21:52:22.955Z70.195° E18.113°2024-12-02 21:56:22.955Z111.304° ESE
10 mins2024-12-02 23:33:22.955Z343.742° N2024-12-02 23:38:22.955Z250.133° W41.807°2024-12-02 23:43:22.955Z188.699° SSW
|